GFSNW_con_lsi_132.txt.gz
Lid_Strength_Index
6 5 5 4 4 5 5 5 9 2 1 6 6 8 7 7 7 5 7 8 9 11 10 11 11 11 9 6 7 10 9 13 16 14 10 9 10 12 10 15 17 16 18 16
6 5 5 4 5 5 6 7 7 3 3 9 8 6 7 6 6 7 8 9 8 8 10 14 11 9 6 6 8 10 9 12 17 17 14 11 13 11 11 11 12 16 19 16
6 5 5 5 4 5 5 7 10 6 5 5 7 8 8 8 6 8 8 8 8 10 12 9 11 10 8 7 7 6 7 12 15 18 16 14 14 12 11 11 16 15 15 14
6 6 5 5 5 5 5 8 9 8 10 8 7 7 7 8 9 7 7 9 9 11 13 12 11 9 9 8 7 8 9 15 12 12 11 12 13 12 11 12 11 15 12 12
6 6 6 5 5 5 6 9 11 8 9 8 7 7 8 9 9 9 10 11 10 10 12 12 13 11 11 12 9 10 9 14 12 13 11 11 13 12 11 10 10 10 13 13
6 6 6 5 5 4 6 6 8 9 9 8 8 7 8 8 8 8 8 10 11 11 10 8 8 7 8 9 11 11 11 12 15 16 11 13 16 12 12 10 9 12 15 12
6 6 6 6 5 5 6 5 7 9 12 10 8 8 7 8 8 10 8 9 10 8 6 6 6 7 8 8 9 10 13 13 14 16 15 21 12 8 8 9 10 10 10 10
6 6 6 5 5 5 6 5 6 9 12 9 8 7 8 7 7 9 9 8 6 5 8 12 12 13 12 11 10 11 12 13 16 18 18 15 12 9 9 10 13 9 10 9
6 6 5 5 5 5 6 6 3 6 11 10 7 8 7 9 10 10 9 7 6 7 10 12 16 17 14 16 13 10 12 12 15 16 19 21 15 10 7 7 16 9 9 9
6 5 5 5 5 5 5 6 2 6 9 7 5 7 8 8 9 11 9 9 10 9 12 14 15 15 11 16 16 15 15 15 16 16 17 16 11 9 7 14 15 9 8 8
6 6 6 5 5 5 5 6 3 5 7 6 4 4 6 6 8 11 9 12 11 12 14 14 14 14 13 14 13 15 15 16 16 16 18 19 8 9 13 10 8 8 8 8
6 6 5 5 5 5 5 6 3 2 6 5 2 2 2 4 5 8 8 11 13 13 14 13 14 14 13 14 17 12 15 14 14 14 15 10 8 8 7 7 7 8 9 10
6 5 5 5 5 5 5 5 3 3 5 5 4 4 2 1 2 3 8 8 10 12 10 13 14 16 14 15 15 14 14 12 13 12 11 10 8 7 6 6 6 8 8 9
6 5 5 6 6 5 4 4 3 2 5 8 5 1 3 1 2 3 4 6 8 8 9 14 14 15 12 13 13 15 15 14 13 13 11 9 8 9 8 8 8 9 10 10
5 5 5 6 5 4 3 3 2 -1 4 8 6 4 2 1 3 3 3 5 7 9 11 13 14 12 11 10 12 15 15 14 14 14 11 12 11 9 9 9 10 10 11 11
6 5 5 5 4 3 4 4 0 -0 0 5 9 4 4 2 2 4 5 6 6 8 10 10 9 8 9 13 15 15 15 11 11 12 11 11 11 10 9 11 11 10 10 10
5 5 5 4 3 3 4 4 2 1 0 6 9 7 4 3 3 4 5 5 5 6 8 9 9 9 10 13 16 15 13 11 11 10 11 12 11 13 11 11 10 9 10 10
5 5 4 3 2 2 2 -0 -1 1 2 5 9 8 6 3 6 7 4 7 6 6 8 8 10 9 10 15 15 14 13 11 11 11 11 11 10 10 11 10 11 11 11 10
5 4 3 1 2 3 2 -0 1 0 3 7 7 10 11 4 6 6 6 6 10 6 9 10 9 12 14 11 12 12 12 13 11 9 10 10 11 10 10 10 10 11 10 9
3 2 2 5 2 0 -1 2 4 4 4 4 7 5 9 5 6 7 8 6 9 12 9 7 12 12 9 8 8 8 9 9 8 9 9 8 9 9 9 9 8 9 9 9
2 4 5 1 -1 1 4 7 7 7 8 6 6 6 7 4 8 8 7 9 8 13 11 11 12 13 10 7 7 6 6 7 8 9 8 8 8 8 8 8 8 8 8 8
5 4 3 2 3 5 8 8 7 8 9 6 6 6 5 5 4 7 7 9 8 13 8 10 14 10 7 6 7 6 6 7 7 8 9 9 9 8 8 8 8 8 7 7
2 3 5 5 6 10 10 11 9 9 6 6 5 7 5 4 4 6 7 10 10 6 10 13 11 7 6 6 7 7 6 6 7 7 7 8 8 8 8 8 7 7 7 7
5 6 11 8 9 8 8 8 7 5 5 5 5 6 6 5 7 6 10 8 7 11 13 14 9 7 5 4 5 6 6 6 6 6 6 7 7 7 7 7 7 7 7 7
6 6 10 8 5 5 5 4 5 5 4 5 6 6 5 7 7 7 8 10 12 11 13 10 7 6 5 4 4 5 6 6 6 6 6 7 6 7 7 7 7 7 7 7
5 5 7 6 6 6 6 5 6 3 4 4 5 7 8 9 7 9 10 11 13 11 8 6 5 5 4 4 4 3 4 4 5 6 6 6 6 6 6 6 6 7 7 7
6 7 5 5 6 6 5 5 5 3 5 8 7 10 10 6 9 10 8 11 9 7 6 4 4 4 5 3 3 3 3 3 3 4 5 5 5 5 6 7 6 6 6 7

GFSNW_con_lsi_135.txt.gz
Lid_Strength_Index
5 5 6 5 5 5 6 7 10 5 5 9 9 11 8 6 7 6 7 8 9 11 11 13 12 12 10 7 8 12 10 13 16 14 9 9 11 13 14 18 18 16 17 17
5 5 6 6 5 5 7 9 8 5 6 14 12 9 8 7 7 7 8 10 9 9 12 14 12 11 8 7 9 11 10 14 18 16 14 11 14 12 12 13 13 17 19 16
5 5 6 5 5 5 6 8 12 9 9 9 11 11 10 9 6 7 8 9 8 10 12 10 12 12 9 7 8 7 8 13 15 18 16 13 15 13 12 13 17 16 16 14
5 5 6 6 6 5 6 8 11 10 14 12 11 9 9 10 10 8 8 10 10 11 14 13 12 11 10 9 7 8 10 15 13 13 12 12 12 13 13 14 13 16 13 13
5 6 6 6 6 5 6 10 11 10 11 10 11 10 10 10 10 11 11 12 11 10 12 12 13 12 11 12 10 11 9 15 13 14 12 12 14 12 12 12 13 13 13 14
6 6 6 7 5 5 7 7 7 10 11 12 12 11 10 10 9 9 9 10 11 12 10 9 8 8 8 9 11 11 12 13 15 17 13 14 17 13 12 12 11 11 15 12
6 6 6 6 5 5 6 7 8 10 14 12 12 11 9 9 10 11 10 10 11 9 7 8 8 9 10 9 10 10 13 14 14 17 16 21 14 9 9 11 11 11 11 10
6 6 7 6 5 5 6 7 8 9 13 11 11 9 9 8 8 10 11 9 8 7 10 12 14 13 12 11 10 11 12 14 17 18 18 15 13 12 12 13 14 10 11 10
6 6 6 5 5 4 6 6 6 8 11 12 9 10 9 11 11 11 10 8 7 9 12 13 16 18 15 16 13 10 12 13 16 17 19 21 14 10 8 9 16 9 9 10
6 7 6 6 5 4 6 7 6 8 10 9 8 10 10 8 9 12 11 9 10 10 14 15 15 16 12 16 16 16 15 15 17 17 18 15 11 9 8 16 16 9 8 8
7 6 6 5 4 4 6 7 5 7 9 8 6 6 7 8 10 13 10 11 12 13 15 15 16 16 14 14 14 16 16 16 16 16 18 19 8 9 14 11 8 8 8 8
6 7 6 5 4 5 5 8 5 4 7 7 4 4 4 5 7 9 9 10 11 12 15 14 15 15 14 15 17 14 16 15 16 16 16 11 8 9 7 7 9 9 9 9
6 6 5 4 5 5 5 6 5 5 7 7 6 6 3 3 4 4 10 9 9 11 11 14 14 16 14 16 16 15 14 13 13 13 12 11 9 8 8 9 10 10 10 9
6 6 5 4 5 5 4 6 5 5 6 9 7 2 5 4 4 4 4 6 8 9 11 14 14 15 12 14 14 15 15 15 14 13 12 11 11 10 10 10 10 11 10 10
6 5 5 5 5 5 4 4 4 3 5 8 7 5 4 2 3 3 4 6 7 9 12 13 14 12 12 11 14 16 15 15 15 16 13 12 12 11 10 11 11 11 11 11
5 5 5 5 5 4 5 6 2 0 1 6 10 5 5 5 3 5 6 6 7 8 10 11 10 8 11 14 16 15 14 11 11 13 11 11 11 10 10 11 11 10 11 10
5 5 5 5 4 4 6 5 2 1 2 6 9 9 4 4 4 5 6 5 6 7 9 10 10 10 11 15 19 16 12 11 10 10 11 13 12 12 10 10 10 9 10 10
5 6 5 4 3 3 4 2 0 1 3 5 9 9 7 4 7 8 5 7 6 8 9 9 11 10 12 16 15 14 12 11 11 11 11 11 10 10 10 10 10 11 11 10
5 5 4 3 3 3 2 -1 -0 1 4 8 8 10 12 5 6 6 6 6 10 7 10 10 11 12 15 14 14 12 11 11 11 10 10 10 11 11 10 10 10 10 11 10
5 5 5 5 3 1 -0 2 4 5 4 5 8 6 10 6 7 8 8 7 10 12 10 8 13 12 10 10 11 10 9 9 9 11 11 11 11 10 10 10 10 9 9 9
5 6 6 4 0 2 4 7 8 7 9 7 7 7 9 5 9 9 8 10 9 13 11 12 13 13 10 7 8 8 8 9 10 9 9 9 9 9 10 9 9 9 9 9
7 7 4 3 4 6 8 9 8 8 10 7 8 7 6 6 5 8 8 10 10 14 8 11 14 11 8 8 8 8 9 9 10 10 10 9 9 9 9 9 9 9 8 8
4 5 6 6 6 11 11 12 11 10 8 6 7 8 7 6 6 8 8 11 12 8 12 13 11 9 7 8 8 8 8 9 9 9 9 9 9 9 9 9 8 8 8 7
7 7 10 9 10 9 8 9 8 6 6 6 6 7 8 7 8 8 10 9 9 13 14 14 9 7 6 6 7 8 8 8 8 8 9 9 9 8 8 8 8 8 8 8
7 6 10 9 6 6 6 5 6 5 5 6 7 7 7 8 9 8 9 10 13 12 13 10 8 6 6 5 7 7 7 7 8 8 8 8 8 8 8 8 8 8 7 7
6 6 8 6 7 8 7 6 7 5 5 5 6 8 9 10 9 10 11 12 14 12 9 7 6 6 5 5 4 5 6 7 7 7 7 7 8 8 8 8 8 8 8 8
7 7 5 6 6 7 6 5 6 4 6 9 8 10 10 8 10 11 10 12 10 8 7 6 5 6 5 5 4 4 4 5 6 6 6 7 7 7 8 9 9 8 8 8

GFSNW_con_lsi_138.txt.gz
Lid_Strength_Index
5 5 5 6 6 6 7 10 13 6 7 13 14 14 10 7 7 6 8 9 10 12 12 13 12 13 11 8 8 12 10 13 17 14 10 8 10 13 14 18 19 17 18 17
6 6 6 6 6 6 8 11 11 6 8 16 16 12 10 9 8 9 10 10 9 9 12 14 12 11 8 7 9 11 10 14 18 18 13 11 13 12 12 13 15 18 20 17
6 6 6 6 6 6 8 11 14 11 12 12 15 15 12 11 8 10 10 10 9 10 12 10 13 12 9 7 8 7 8 13 15 18 17 13 15 13 12 14 18 17 17 14
6 7 7 6 6 6 9 12 14 12 17 13 14 12 12 12 13 10 10 11 11 12 14 13 13 10 10 8 7 8 10 15 13 13 12 12 13 13 13 14 14 16 14 14
7 7 7 6 6 6 11 13 12 11 12 12 13 13 13 12 11 12 13 13 12 12 14 13 13 11 11 12 9 11 10 15 14 15 13 12 14 12 12 13 13 12 13 13
7 7 7 6 6 7 11 11 9 10 12 13 13 14 12 11 11 10 10 11 13 13 11 10 9 10 10 11 11 12 13 14 15 18 14 15 17 14 13 12 11 12 15 12
7 7 7 7 7 6 9 10 8 11 15 13 13 12 10 11 11 12 11 10 12 10 8 9 10 10 10 10 11 10 13 14 15 17 16 21 14 10 10 11 11 10 11 11
6 7 7 7 6 6 8 9 8 10 14 12 12 11 11 10 10 12 12 10 9 8 11 13 15 13 12 11 10 11 11 14 17 18 18 15 14 12 12 13 14 10 11 10
7 7 7 7 7 5 7 9 8 9 12 14 10 11 10 11 11 11 11 9 8 9 13 14 17 17 15 16 13 10 12 13 16 17 19 21 14 10 8 9 16 9 9 10
7 7 7 7 6 5 6 8 8 8 12 10 9 11 11 9 9 13 12 10 11 10 14 16 18 17 13 16 16 16 15 15 17 17 17 15 11 9 8 16 16 9 9 10
7 7 7 7 6 4 6 9 8 8 10 9 8 8 9 9 11 14 11 12 12 13 16 15 16 16 15 15 14 16 16 17 16 16 17 19 9 9 14 11 8 8 9 10
7 7 7 7 5 4 5 9 8 6 9 9 6 5 5 6 8 11 10 11 11 11 15 14 15 16 15 15 18 14 17 16 18 16 17 13 9 9 8 8 9 10 10 10
7 7 7 6 5 4 6 7 7 6 8 8 8 8 5 5 6 6 11 9 8 11 10 14 14 16 14 16 16 16 14 13 15 14 14 13 10 10 10 9 10 9 10 9
8 8 6 5 5 5 5 7 7 6 7 9 9 5 6 5 4 4 5 6 8 9 11 13 14 15 12 14 15 16 15 15 15 14 14 12 11 11 10 11 10 11 10 11
7 6 6 5 5 5 6 7 6 5 6 8 7 6 6 6 3 3 4 6 8 10 12 13 14 12 13 12 14 16 15 15 15 17 14 14 13 11 10 11 11 11 11 11
6 5 5 5 5 5 7 9 4 2 2 6 10 8 8 7 3 5 6 6 7 9 10 11 10 9 11 15 17 14 14 11 12 13 11 11 11 10 10 11 10 10 10 10
5 5 5 5 5 7 8 9 6 2 4 7 9 11 7 4 4 5 6 6 8 10 9 10 10 11 13 15 19 15 13 11 11 10 10 12 10 11 10 10 9 9 9 9
5 5 5 5 4 4 6 5 3 3 6 5 10 11 10 5 7 8 5 8 9 10 10 9 11 10 13 16 15 12 11 11 11 11 10 10 10 9 9 9 9 10 10 10
5 5 5 6 6 7 4 -0 1 4 6 9 8 12 13 6 7 6 7 7 11 8 11 10 11 13 17 15 13 11 12 12 12 10 10 10 10 10 10 10 10 10 10 10
5 7 7 9 5 1 2 3 6 5 6 6 9 9 11 7 8 9 9 8 10 12 10 9 13 14 12 10 10 10 10 11 10 12 12 11 11 11 10 10 10 10 10 10
9 11 10 8 4 6 5 8 8 7 9 7 9 9 10 6 9 9 9 10 9 13 11 12 14 14 11 9 9 8 8 9 9 9 9 9 10 11 11 10 10 10 10 10
9 9 7 7 6 6 9 10 8 9 11 8 9 8 7 8 6 8 8 10 10 14 8 12 14 11 9 8 8 8 10 9 9 9 9 9 10 10 10 10 10 10 9 9
6 7 8 8 8 13 12 12 12 11 8 7 8 9 7 7 7 8 9 11 13 8 13 13 12 10 9 8 7 9 10 11 10 10 10 9 9 9 9 9 9 8 9 9
10 9 13 11 11 10 9 10 9 8 7 7 8 8 8 7 9 8 11 9 10 13 15 13 12 9 8 9 9 10 11 11 11 11 10 10 10 10 9 9 8 9 9 9
10 8 13 11 8 7 7 7 7 6 6 6 8 8 8 9 9 9 10 12 14 13 14 12 9 8 7 9 10 10 10 10 10 10 10 10 9 9 9 9 9 8 8 8
8 8 10 9 9 8 8 7 8 5 6 7 7 9 10 11 10 11 12 13 15 13 11 9 7 7 5 8 9 8 8 9 9 9 9 9 9 9 9 9 8 8 8 8
8 10 7 8 7 8 7 6 7 5 7 10 9 11 11 9 11 12 10 12 10 9 7 6 7 6 5 6 6 8 8 9 9 9 9 9 9 9 10 10 10 9 9 9

GFSNW_con_lsi_141.txt.gz
Lid_Strength_Index
6 6 6 6 7 7 8 11 16 8 8 14 15 16 13 9 9 9 10 10 11 12 12 13 13 12 11 7 8 12 10 13 16 14 10 9 11 13 14 18 19 17 18 16
6 6 6 6 7 7 9 12 12 8 9 17 16 14 13 11 10 11 11 12 10 10 12 14 12 11 8 7 9 11 10 14 18 17 13 11 13 12 12 13 14 18 20 17
6 6 6 6 7 7 9 12 16 13 13 13 15 14 14 13 9 10 11 12 10 12 13 12 13 12 9 7 8 7 8 13 15 19 18 13 14 13 12 13 17 17 17 15
6 6 6 6 7 7 11 14 16 14 17 15 14 15 14 14 13 10 11 12 12 14 16 14 13 11 10 9 7 8 10 15 13 13 12 12 13 13 13 14 14 17 15 14
5 6 6 7 7 7 12 16 15 13 14 13 14 14 15 14 12 12 14 13 13 13 15 14 14 13 12 12 10 12 11 15 14 16 13 14 15 13 13 12 12 13 14 14
6 6 7 7 7 8 14 13 12 11 13 14 14 14 13 13 11 11 11 12 14 14 12 11 11 11 11 11 12 12 13 14 16 18 15 15 17 14 13 13 11 12 16 12
6 6 7 7 8 7 10 12 10 12 17 14 14 13 12 12 12 12 12 12 13 11 9 10 10 10 10 11 11 11 13 14 15 18 17 21 14 10 11 12 12 11 11 11
7 7 8 8 8 7 9 10 10 12 16 13 13 12 12 11 10 11 12 11 10 9 10 14 16 14 13 12 10 11 11 15 16 20 19 15 13 12 12 13 13 10 11 10
7 8 7 8 7 7 8 10 8 9 13 15 12 13 11 11 11 11 11 10 9 9 13 14 18 18 15 15 14 11 12 14 16 18 20 21 14 10 9 10 16 9 10 11
7 8 8 8 7 7 7 9 9 9 13 12 12 12 11 8 10 12 12 12 11 10 14 18 17 18 14 17 16 16 16 15 17 17 18 15 10 11 8 17 16 11 10 11
7 8 7 8 7 6 6 9 9 9 11 10 9 8 10 10 10 14 13 13 11 13 15 15 16 17 15 15 15 16 16 18 18 16 18 19 12 11 14 11 10 10 11 11
7 7 8 8 7 6 5 9 8 7 10 10 7 6 6 7 9 11 11 12 12 11 15 14 15 16 15 15 18 14 17 16 19 17 17 14 12 10 9 9 11 11 11 11
8 8 8 7 6 5 5 8 7 7 9 9 10 9 6 5 7 7 12 10 8 10 10 13 14 16 14 16 16 16 14 14 15 15 14 14 12 10 10 10 11 10 10 11
8 8 7 7 6 5 5 7 7 7 9 11 10 6 7 5 6 6 8 8 8 10 11 13 14 15 12 14 14 16 15 16 15 15 14 13 12 11 11 11 10 11 10 11
8 7 6 6 5 5 6 8 7 6 8 10 9 7 7 7 4 4 5 7 9 10 12 13 13 12 12 13 14 16 15 16 16 17 14 13 13 11 10 11 11 11 11 11
7 6 6 5 5 5 9 10 6 5 5 7 11 8 8 7 6 5 6 6 7 9 10 11 10 10 12 16 18 15 13 12 12 13 10 11 11 10 10 11 10 10 10 11
7 6 6 5 5 6 9 11 6 4 4 7 9 12 9 7 4 5 7 8 9 10 10 10 10 12 14 15 17 15 12 11 11 10 10 12 10 11 10 10 10 9 10 10
6 5 5 5 4 5 7 7 4 4 6 6 10 12 11 6 7 8 7 9 10 10 10 9 11 11 13 15 14 12 12 11 10 10 9 10 9 9 9 9 9 10 11 10
5 5 4 7 7 8 6 2 2 5 6 9 10 11 13 7 7 7 7 7 11 10 11 11 12 14 16 14 12 12 11 11 11 10 9 9 10 10 10 10 10 11 11 10
5 7 8 10 7 3 3 5 8 6 6 6 9 9 12 8 8 8 9 8 10 13 11 10 13 15 11 10 10 11 10 10 9 11 11 11 10 10 10 10 10 10 11 11
10 11 11 9 5 8 7 9 8 8 9 7 9 9 11 7 9 10 8 10 10 13 12 13 14 15 12 9 9 9 9 10 9 9 9 10 10 10 11 11 11 11 12 12
10 10 9 9 9 8 9 10 9 9 11 8 9 8 8 8 7 8 8 11 10 14 9 12 14 12 9 9 8 10 9 9 9 8 9 10 10 10 11 11 12 12 11 11
7 8 9 10 10 14 13 12 13 11 9 8 8 9 8 7 7 8 9 12 13 8 13 13 13 10 9 8 9 11 9 9 9 10 10 10 11 10 11 11 11 10 10 10
10 10 15 12 14 12 11 10 10 8 8 8 8 9 9 8 9 9 12 10 10 13 14 14 12 10 9 9 10 12 12 11 11 11 11 11 10 10 9 10 9 10 10 10
11 11 15 13 10 8 8 8 8 7 7 8 8 8 8 9 10 9 10 12 14 13 15 13 11 9 10 10 10 11 11 12 12 11 11 11 10 10 10 10 10 9 10 10
10 11 12 11 11 10 9 8 8 7 7 8 8 10 11 11 10 11 12 13 14 14 11 10 9 8 10 11 11 11 11 12 12 11 11 10 10 10 10 10 9 9 9 9
10 12 10 10 11 10 9 7 8 7 8 10 9 12 12 9 12 12 10 12 11 10 9 8 8 7 9 9 9 9 9 10 10 10 10 10 10 10 10 10 10 9 9 9